Location: Drocourt
(49.0571°N, 1.7669°E)
Time: 15:08:12
(UTC+00:00)

SR - Pass Details

Date: 30 April 2024
Orbit: 579 x 860 km, 66.7° (Epoch: 22 May)

Event Time Altitude Azimuth Distance (km) Brightness Sun altitude
Exits shadow 01:19:52 13° 279° (W) 2,097 ? -23.0°
Maximum altitude 01:23:16 22° 325° (NW) 1,536 ? -22.8°
Drops below altitude 10° 01:27:07 10° 17° (NNE) 2,146 ? -22.6°
Sets 01:29:49 0° 33° (NNE) 3,012 ? -22.4°
